STARLINK-36738

Last updated on Sun Mar 22 2026 00:02:05 GMT+0000 (Coordinated Universal Time)

1 67865U 26034R 26080.60563253 .00310315 00000+0 15148-2 0 9996 2 67865 53.1585 151.5063 0001433 79.5716 280.5469 15.80946678 5821
UTC large
Height (km)
Speed (km/s)
/
Latitude / Longitude
Inclination (degrees)
Orbital Period (minutes)
Azimuth
Elevation
Range (km)
Doppler Factor

Next 0 passes for location: London (51.5072 / 0.1276)

Sorry there are no passes over London.